• In Uzbekistan
  • List of Countries
  • For 7 days
  • Water Temperature
  • Satellite Maps
  • Weather Map
  • Weather Widgets
  • user-avatar
    Login

    Hourly Weather Hrazdan

    Today, 25 April, Tuesday

    Time Temperature Precipitation Wind Pressure Humidity
    00:00 +2°C° 0 mm 1 mps 610 mmHg 86%
    01:00 +2°C° 0 mm 1 mps 610 mmHg 85%
    02:00 +1°C° 0 mm 1 mps 610 mmHg 85%
    03:00 +1°C° 0 mm 1 mps 610 mmHg 85%
    04:00 +1°C° 0 mm 1 mps 610 mmHg 83%
    05:00 +1°C° 0 mm 1 mps 611 mmHg 81%
    06:00 +2°C° 0 mm 1 mps 611 mmHg 79%
    07:00 +3°C° 0 mm 1 mps 612 mmHg 71%
    08:00 +5°C° 0 mm 1 mps 613 mmHg 62%
    09:00 +6°C° 0 mm 2 mps 613 mmHg 53%
    10:00 +7°C° 0.1 mm 2 mps 614 mmHg 51%
    11:00 +7°C° 0.1 mm 2 mps 614 mmHg 48%
    12:00 +8°C° 0.1 mm 2 mps 614 mmHg 45%
    13:00 +8°C° 0.1 mm 2 mps 614 mmHg 46%
    14:00 +8°C° 0.1 mm 2 mps 614 mmHg 47%
    15:00 +8°C° 0.1 mm 2 mps 614 mmHg 47%
    16:00 +6°C° 0 mm 2 mps 614 mmHg 53%
    17:00 +5°C° 0 mm 2 mps 614 mmHg 58%
    18:00 +4°C° 0 mm 2 mps 614 mmHg 64%
    19:00 +3°C° 0 mm 2 mps 614 mmHg 70%
    20:00 +1°C° 0 mm 2 mps 614 mmHg 76%
    21:00 +1°C° 0 mm 1 mps 615 mmHg 82%
    22:00 0°C° 0 mm 1 mps 615 mmHg 82%
    23:00 0°C° 0 mm 1 mps 615 mmHg 81%

    Tomorrow, 26 April, Wednesday

    Time Temperature Precipitation Wind Pressure Humidity
    00:00 0°C° 0 mm 1 mps 615 mmHg 81%
    01:00 -1°C° 0 mm 1 mps 615 mmHg 80%
    02:00 -1°C° 0 mm 1 mps 615 mmHg 80%
    03:00 -1°C° 0 mm 1 mps 615 mmHg 79%
    04:00 -1°C° 0 mm 1 mps 616 mmHg 77%
    05:00 -1°C° 0 mm 1 mps 616 mmHg 76%
    06:00 0°C° 0 mm 1 mps 616 mmHg 74%
    07:00 +2°C° 0 mm 1 mps 617 mmHg 65%
    08:00 +4°C° 0 mm 1 mps 618 mmHg 56%
    09:00 +6°C° 0 mm 1 mps 618 mmHg 47%
    10:00 +7°C° 0 mm 1 mps 619 mmHg 45%
    11:00 +7°C° 0 mm 2 mps 619 mmHg 43%
    12:00 +9°C° 0 mm 2 mps 619 mmHg 41%
    13:00 +9°C° 0 mm 2 mps 618 mmHg 44%
    14:00 +8°C° 0 mm 2 mps 618 mmHg 47%
    15:00 +8°C° 0 mm 2 mps 618 mmHg 50%
    16:00 +7°C° 0 mm 2 mps 617 mmHg 57%
    17:00 +6°C° 0 mm 2 mps 617 mmHg 64%
    18:00 +5°C° 0 mm 2 mps 617 mmHg 71%
    19:00 +3°C° 0 mm 2 mps 617 mmHg 77%
    20:00 +2°C° 0 mm 2 mps 617 mmHg 82%
    21:00 +1°C° 0 mm 2 mps 617 mmHg 87%
    22:00 -1°C° 0 mm 2 mps 617 mmHg 88%
    23:00 +1°C° 0 mm 1 mps 617 mmHg 89%

    Day after tomorrow, 27 April, Thursday

    Time Temperature Precipitation Wind Pressure Humidity
    00:00 +1°C° 0 mm 1 mps 617 mmHg 89%
    01:00 0°C° 0 mm 1 mps 617 mmHg 89%
    02:00 0°C° 0 mm 1 mps 617 mmHg 90%
    03:00 0°C° 0 mm 1 mps 617 mmHg 90%
    04:00 0°C° 0 mm 1 mps 617 mmHg 88%
    05:00 +1°C° 0 mm 1 mps 617 mmHg 85%
    06:00 +1°C° 0 mm 1 mps 617 mmHg 83%
    07:00 +3°C° 0 mm 1 mps 618 mmHg 73%
    08:00 +5°C° 0 mm 1 mps 618 mmHg 63%
    09:00 +7°C° 0 mm 1 mps 618 mmHg 53%
    10:00 +8°C° 0 mm 1 mps 618 mmHg 50%
    11:00 +9°C° 0 mm 2 mps 619 mmHg 47%
    12:00 +10°C° 0 mm 2 mps 619 mmHg 43%
    13:00 +10°C° 0 mm 2 mps 618 mmHg 44%
    14:00 +10°C° 0 mm 2 mps 618 mmHg 45%
    15:00 +10°C° 0 mm 2 mps 618 mmHg 46%
    16:00 +9°C° 0 mm 2 mps 617 mmHg 54%
    17:00 +7°C° 0 mm 2 mps 617 mmHg 61%
    18:00 +6°C° 0 mm 2 mps 616 mmHg 69%
    19:00 +5°C° 0 mm 2 mps 616 mmHg 75%
    20:00 +3°C° 0 mm 2 mps 616 mmHg 82%
    21:00 +2°C° 0 mm 2 mps 616 mmHg 88%
    22:00 +2°C° 0 mm 1 mps 617 mmHg 88%
    23:00 +2°C° 0 mm 1 mps 617 mmHg 88%

    28 April, Friday

    Time Temperature Precipitation Wind Pressure Humidity
    00:00 +2°C° 0 mm 1 mps 617 mmHg 89%
    01:00 +2°C° 0 mm 1 mps 616 mmHg 89%
    02:00 +2°C° 0 mm 1 mps 616 mmHg 90%
    03:00 +1°C° 0 mm 1 mps 616 mmHg 90%
    04:00 +2°C° 0 mm 1 mps 616 mmHg 89%
    05:00 +2°C° 0 mm 1 mps 616 mmHg 87%
    06:00 +2°C° 0 mm 1 mps 616 mmHg 86%
    07:00 +5°C° 0 mm 1 mps 617 mmHg 75%
    08:00 +7°C° 0 mm 1 mps 617 mmHg 64%
    09:00 +9°C° 0 mm 1 mps 618 mmHg 53%
    10:00 +11°C° 0 mm 1 mps 618 mmHg 51%
    11:00 +12°C° 0 mm 2 mps 618 mmHg 48%
    12:00 +13°C° 0 mm 2 mps 618 mmHg 45%
    13:00 +13°C° 0 mm 2 mps 617 mmHg 46%
    14:00 +14°C° 0 mm 2 mps 617 mmHg 46%
    15:00 +14°C° 0 mm 2 mps 617 mmHg 47%
    16:00 +12°C° 0 mm 1 mps 616 mmHg 55%
    17:00 +11°C° 0 mm 1 mps 616 mmHg 62%
    18:00 +10°C° 0 mm 1 mps 615 mmHg 69%
    19:00 +8°C° 0 mm 1 mps 615 mmHg 75%
    20:00 +7°C° 0 mm 1 mps 615 mmHg 81%
    21:00 +6°C° 0 mm 1 mps 615 mmHg 87%
    22:00 +6°C° 0.2 mm 1 mps 615 mmHg 88%
    23:00 +6°C° 0.2 mm 1 mps 615 mmHg 90%

    29 April, Saturday

    Time Temperature Precipitation Wind Pressure Humidity
    00:00 +5°C° 0.2 mm 1 mps 614 mmHg 91%
    01:00 +5°C° 0.4 mm 1 mps 614 mmHg 91%
    02:00 +5°C° 0.4 mm 1 mps 614 mmHg 92%
    03:00 +5°C° 0.4 mm 1 mps 613 mmHg 93%
    04:00 +5°C° 0.5 mm 1 mps 614 mmHg 92%
    05:00 +5°C° 0.5 mm 1 mps 614 mmHg 91%
    06:00 +5°C° 0.5 mm 1 mps 614 mmHg 91%
    07:00 +7°C° 0.2 mm 1 mps 614 mmHg 84%
    08:00 +9°C° 0.2 mm 1 mps 615 mmHg 78%
    09:00 +10°C° 0.2 mm 1 mps 615 mmHg 72%
    10:00 +12°C° 0.1 mm 1 mps 615 mmHg 66%
    11:00 +13°C° 0.1 mm 1 mps 615 mmHg 61%
    12:00 +15°C° 0.1 mm 1 mps 615 mmHg 55%
    13:00 +14°C° 0.4 mm 1 mps 615 mmHg 57%
    14:00 +14°C° 0.4 mm 1 mps 615 mmHg 58%
    15:00 +14°C° 0.4 mm 1 mps 614 mmHg 60%
    16:00 +13°C° 0.3 mm 1 mps 614 mmHg 65%
    17:00 +12°C° 0.3 mm 1 mps 614 mmHg 70%
    18:00 +11°C° 0.3 mm 1 mps 613 mmHg 76%
    19:00 +10°C° 0.4 mm 1 mps 613 mmHg 80%
    20:00 +8°C° 0.4 mm 1 mps 613 mmHg 85%
    21:00 +7°C° 0.4 mm 1 mps 613 mmHg 89%
    22:00 +7°C° 0.1 mm 1 mps 613 mmHg 90%
    23:00 +6°C° 0.1 mm 1 mps 612 mmHg 91%

    30 April, Sunday

    Time Temperature Precipitation Wind Pressure Humidity
    00:00 +6°C° 0.1 mm 1 mps 612 mmHg 92%
    01:00 +5°C° 0 mm 1 mps 612 mmHg 93%
    02:00 +4°C° 0 mm 0 mps 611 mmHg 93%
    03:00 +3°C° 0 mm 0 mps 611 mmHg 93%
    04:00 +3°C° 0 mm 0 mps 611 mmHg 92%
    05:00 +4°C° 0 mm 0 mps 612 mmHg 90%
    06:00 +5°C° 0 mm 0 mps 612 mmHg 88%
    07:00 +8°C° 0 mm 1 mps 613 mmHg 78%
    08:00 +11°C° 0 mm 1 mps 614 mmHg 67%
    09:00 +13°C° 0 mm 1 mps 615 mmHg 57%
    10:00 +14°C° 0.1 mm 1 mps 615 mmHg 53%
    11:00 +15°C° 0.1 mm 1 mps 615 mmHg 50%
    12:00 +16°C° 0.1 mm 2 mps 615 mmHg 46%
    13:00 +17°C° 0.3 mm 2 mps 615 mmHg 45%
    14:00 +17°C° 0.3 mm 2 mps 614 mmHg 44%
    15:00 +18°C° 0.3 mm 1 mps 614 mmHg 43%
    16:00 +15°C° 0.4 mm 1 mps 614 mmHg 51%
    17:00 +14°C° 0.4 mm 1 mps 613 mmHg 60%
    18:00 +13°C° 0.4 mm 1 mps 613 mmHg 68%
    19:00 +11°C° 0.3 mm 1 mps 612 mmHg 73%
    20:00 +9°C° 0.3 mm 1 mps 612 mmHg 79%
    21:00 +7°C° 0.3 mm 1 mps 611 mmHg 84%
    22:00 +7°C° 0.2 mm 1 mps 611 mmHg 85%
    23:00 +6°C° 0.2 mm 1 mps 611 mmHg 86%
    Show more